Time,TemperatureF,DewpointF,PressureIn,WindDirection,WindDirectionDegrees,WindSpeedMPH,WindSpeedGustMPH,Humidity,HourlyPrecipIn,Conditions,Clouds,dailyrainin,SoftwareType,DateUTC
2013-12-23 00:13:00,18.5,17.0,30.14,West,267,0.0,0.0,92,0.00,,,0.00,weatherlink.com 1.10,2013-12-23 06:13:00,
2013-12-23 00:28:00,18.5,17.0,30.14,WSW,256,0.0,0.0,92,0.00,,,0.00,weatherlink.com 1.10,2013-12-23 06:28:00,
2013-12-23 00:43:00,18.2,16.0,30.15,West,263,0.0,0.0,92,0.00,,,0.00,weatherlink.com 1.10,2013-12-23 06:43:00,
2013-12-23 00:58:00,17.7,16.0,30.16,West,266,0.0,0.0,92,0.00,,,0.00,weatherlink.com 1.10,2013-12-23 06:58:00,
2013-12-23 01:13:00,16.9,15.0,30.16,West,276,0.0,0.0,92,0.00,,,0.00,weatherlink.com 1.10,2013-12-23 07:13:00,
2013-12-23 01:28:00,16.8,15.0,30.16,WSW,246,0.0,0.0,92,0.00,,,0.00,weatherlink.com 1.10,2013-12-23 07:28:00,
2013-12-23 01:43:00,16.4,15.0,30.16,WSW,245,0.0,0.0,92,0.00,,,0.00,weatherlink.com 1.10,2013-12-23 07:43:00,
2013-12-23 01:58:00,15.4,14.0,30.17,West,277,0.0,0.0,92,0.00,,,0.00,weatherlink.com 1.10,2013-12-23 07:58:00,
2013-12-23 02:13:00,15.5,14.0,30.18,WSW,240,0.0,0.0,92,0.00,,,0.00,weatherlink.com 1.10,2013-12-23 08:13:00,
2013-12-23 02:28:00,15.4,14.0,30.19,WSW,243,0.0,0.0,93,0.00,,,0.00,weatherlink.com 1.10,2013-12-23 08:28:00,
2013-12-23 02:43:00,15.0,13.0,30.19,WNW,286,0.0,0.0,93,0.00,,,0.00,weatherlink.com 1.10,2013-12-23 08:43:00,
2013-12-23 02:59:00,14.6,13.0,30.20,West,267,0.0,0.0,93,0.00,,,0.00,weatherlink.com 1.10,2013-12-23 08:59:00,
2013-12-23 03:14:00,14.0,12.0,30.20,West,277,0.0,0.0,93,0.00,,,0.00,weatherlink.com 1.10,2013-12-23 09:14:00,
2013-12-23 03:29:00,13.7,12.0,30.21,WNW,299,0.0,0.0,93,0.00,,,0.00,weatherlink.com 1.10,2013-12-23 09:29:00,
2013-12-23 03:44:00,13.2,12.0,30.22,WSW,240,0.0,0.0,93,0.00,,,0.00,weatherlink.com 1.10,2013-12-23 09:44:00,
2013-12-23 03:59:00,12.6,11.0,30.23,SW,222,0.0,0.0,92,0.00,,,0.00,weatherlink.com 1.10,2013-12-23 09:59:00,
2013-12-23 04:14:00,11.8,10.0,30.23,West,261,0.0,0.0,91,0.00,,,0.00,weatherlink.com 1.10,2013-12-23 10:14:00,
2013-12-23 04:29:00,11.0,9.0,30.24,SW,224,0.0,0.0,91,0.00,,,0.00,weatherlink.com 1.10,2013-12-23 10:29:00,
2013-12-23 04:44:00,10.5,8.0,30.24,West,266,0.0,0.0,91,0.00,,,0.00,weatherlink.com 1.10,2013-12-23 10:44:00,
2013-12-23 04:59:00,9.9,8.0,30.24,SW,234,0.0,0.0,90,0.00,,,0.00,weatherlink.com 1.10,2013-12-23 10:59:00,
2013-12-23 05:14:00,8.5,6.0,30.25,West,265,0.0,0.0,89,0.00,,,0.00,weatherlink.com 1.10,2013-12-23 11:14:00,
2013-12-23 05:29:00,7.5,5.0,30.25,West,263,0.0,0.0,89,0.00,,,0.00,weatherlink.com 1.10,2013-12-23 11:29:00,
2013-12-23 05:44:00,6.3,4.0,30.26,West,275,0.0,0.0,88,0.00,,,0.00,weatherlink.com 1.10,2013-12-23 11:44:00,
2013-12-23 05:59:00,4.8,2.0,30.27,WSW,252,0.0,0.0,88,0.00,,,0.00,weatherlink.com 1.10,2013-12-23 11:59:00,
2013-12-23 06:14:00,3.4,1.0,30.28,West,268,0.0,0.0,88,0.00,,,0.00,weatherlink.com 1.10,2013-12-23 12:14:00,
2013-12-23 06:29:00,2.4,0.0,30.28,West,271,0.0,0.0,88,0.00,,,0.00,weatherlink.com 1.10,2013-12-23 12:29:00,
2013-12-23 06:44:00,1.5,-1.0,30.29,West,267,0.0,0.0,88,0.00,,,0.00,weatherlink.com 1.10,2013-12-23 12:44:00,
2013-12-23 06:59:00,0.9,-2.0,30.29,WSW,252,0.0,0.0,88,0.00,,,0.00,weatherlink.com 1.10,2013-12-23 12:59:00,
2013-12-23 07:15:00,0.0,-3.0,30.30,WSW,238,0.0,0.0,87,0.00,,,0.00,weatherlink.com 1.10,2013-12-23 13:15:00,
2013-12-23 07:30:00,-0.5,-3.0,30.31,West,266,0.0,0.0,88,0.00,,,0.00,weatherlink.com 1.10,2013-12-23 13:30:00,
2013-12-23 07:45:00,-0.8,-4.0,30.31,West,277,0.0,0.0,87,0.00,,,0.00,weatherlink.com 1.10,2013-12-23 13:45:00,
2013-12-23 08:00:00,-1.3,-4.0,30.32,WSW,247,0.0,0.0,87,0.00,,,0.00,weatherlink.com 1.10,2013-12-23 14:00:00,
2013-12-23 08:15:00,-0.8,-4.0,30.32,WSW,252,0.0,0.0,88,0.00,,,0.00,weatherlink.com 1.10,2013-12-23 14:15:00,
2013-12-23 08:30:00,0.0,-3.0,30.33,West,271,0.0,0.0,87,0.00,,,0.00,weatherlink.com 1.10,2013-12-23 14:30:00,
2013-12-23 08:45:00,-0.1,-3.0,30.34,West,263,0.0,0.0,87,0.00,,,0.00,weatherlink.com 1.10,2013-12-23 14:45:00,
2013-12-23 09:00:00,-0.2,-3.0,30.34,WSW,254,0.0,0.0,86,0.00,,,0.00,weatherlink.com 1.10,2013-12-23 15:00:00,
2013-12-23 09:15:00,0.4,-3.0,30.36,West,273,0.0,0.0,87,0.00,,,0.00,weatherlink.com 1.10,2013-12-23 15:15:00,
2013-12-23 09:30:00,0.6,-3.0,30.36,SW,235,0.0,0.0,86,0.00,,,0.00,weatherlink.com 1.10,2013-12-23 15:30:00,
2013-12-23 09:45:00,0.9,-2.0,30.37,WNW,289,0.0,0.0,86,0.00,,,0.00,weatherlink.com 1.10,2013-12-23 15:45:00,
2013-12-23 10:00:00,1.2,-2.0,30.37,WSW,252,0.0,0.0,86,0.00,,,0.00,weatherlink.com 1.10,2013-12-23 16:00:00,
2013-12-23 10:15:00,1.1,-2.0,30.38,WSW,243,0.0,0.0,85,0.00,,,0.00,weatherlink.com 1.10,2013-12-23 16:15:00,
2013-12-23 10:30:00,1.1,-2.0,30.38,WSW,240,0.0,0.0,85,0.00,,,0.00,weatherlink.com 1.10,2013-12-23 16:30:00,
2013-12-23 10:46:00,1.1,-3.0,30.38,NW,305,0.0,0.0,84,0.00,,,0.00,weatherlink.com 1.10,2013-12-23 16:46:00,
2013-12-23 11:16:00,1.3,-2.0,30.38,West,273,0.0,0.0,84,0.00,,,0.00,weatherlink.com 1.10,2013-12-23 17:16:00,
2013-12-23 11:31:00,1.5,-3.0,30.37,West,267,0.0,0.0,83,0.00,,,0.00,weatherlink.com 1.10,2013-12-23 17:31:00,
2013-12-23 11:46:00,1.7,-2.0,30.37,West,269,0.0,0.0,83,0.00,,,0.00,weatherlink.com 1.10,2013-12-23 17:46:00,
2013-12-23 12:01:00,1.8,-2.0,30.37,West,259,0.0,0.0,83,0.00,,,0.00,weatherlink.com 1.10,2013-12-23 18:01:00,
2013-12-23 12:16:00,2.0,-2.0,30.38,West,266,0.0,0.0,83,0.00,,,0.00,weatherlink.com 1.10,2013-12-23 18:16:00,
2013-12-23 12:31:00,2.1,-2.0,30.37,WSW,252,0.0,0.0,83,0.00,,,0.00,weatherlink.com 1.10,2013-12-23 18:31:00,
2013-12-23 12:46:00,2.4,-2.0,30.37,WSW,249,0.0,0.0,83,0.00,,,0.00,weatherlink.com 1.10,2013-12-23 18:46:00,
2013-12-23 13:01:00,2.9,-1.0,30.38,SW,230,0.0,0.0,83,0.00,,,0.00,weatherlink.com 1.10,2013-12-23 19:01:00,
2013-12-23 13:16:00,2.3,-2.0,30.38,WSW,249,0.0,0.0,82,0.00,,,0.00,weatherlink.com 1.10,2013-12-23 19:16:00,
2013-12-23 13:31:00,2.4,-2.0,30.37,WSW,244,0.0,0.0,82,0.00,,,0.00,weatherlink.com 1.10,2013-12-23 19:31:00,
2013-12-23 13:46:00,2.5,-2.0,30.38,West,260,0.0,0.0,82,0.00,,,0.00,weatherlink.com 1.10,2013-12-23 19:46:00,
2013-12-23 14:01:00,2.7,-2.0,30.38,West,259,0.0,0.0,81,0.00,,,0.00,weatherlink.com 1.10,2013-12-23 20:01:00,
2013-12-23 14:16:00,2.6,-2.0,30.39,West,259,0.0,0.0,81,0.00,,,0.00,weatherlink.com 1.10,2013-12-23 20:16:00,
2013-12-23 14:31:00,2.6,-2.0,30.39,SW,234,0.0,0.0,81,0.00,,,0.00,weatherlink.com 1.10,2013-12-23 20:31:00,
2013-12-23 14:46:00,2.4,-2.0,30.39,WNW,283,0.0,0.0,81,0.00,,,0.00,weatherlink.com 1.10,2013-12-23 20:46:00,
2013-12-23 15:02:00,2.1,-2.0,30.39,WSW,254,0.0,0.0,81,0.00,,,0.00,weatherlink.com 1.10,2013-12-23 21:02:00,
2013-12-23 15:17:00,1.5,-3.0,30.39,West,273,0.0,0.0,81,0.00,,,0.00,weatherlink.com 1.10,2013-12-23 21:17:00,
2013-12-23 15:32:00,0.9,-4.0,30.40,West,272,0.0,0.0,81,0.00,,,0.00,weatherlink.com 1.10,2013-12-23 21:32:00,
2013-12-23 15:47:00,0.4,-4.0,30.41,West,270,0.0,0.0,81,0.00,,,0.00,weatherlink.com 1.10,2013-12-23 21:47:00,
2013-12-23 16:02:00,-0.6,-5.0,30.42,West,274,0.0,0.0,81,0.00,,,0.00,weatherlink.com 1.10,2013-12-23 22:02:00,
2013-12-23 16:32:00,-1.8,-6.0,30.43,West,263,0.0,0.0,81,0.00,,,0.00,weatherlink.com 1.10,2013-12-23 22:32:00,
2013-12-23 16:47:00,-2.2,-6.0,30.43,WNW,284,0.0,0.0,82,0.00,,,0.00,weatherlink.com 1.10,2013-12-23 22:47:00,
2013-12-23 17:02:00,-2.3,-7.0,30.44,West,265,0.0,0.0,82,0.00,,,0.00,weatherlink.com 1.10,2013-12-23 23:02:00,
2013-12-23 17:17:00,-2.9,-7.0,30.44,West,276,0.0,0.0,82,0.00,,,0.00,weatherlink.com 1.10,2013-12-23 23:17:00,
2013-12-23 17:32:00,-3.6,-8.0,30.45,West,267,0.0,0.0,83,0.00,,,0.00,weatherlink.com 1.10,2013-12-23 23:32:00,
2013-12-23 17:47:00,-3.9,-8.0,30.46,West,266,0.0,0.0,82,0.00,,,0.00,weatherlink.com 1.10,2013-12-23 23:47:00,
2013-12-23 18:02:00,-4.5,-8.0,30.47,West,278,0.0,0.0,83,0.00,,,0.00,weatherlink.com 1.10,2013-12-24 00:02:00,
2013-12-23 18:17:00,-4.5,-8.0,30.47,West,266,0.0,0.0,83,0.00,,,0.00,weatherlink.com 1.10,2013-12-24 00:17:00,
2013-12-23 18:33:00,-4.6,-9.0,30.47,West,275,0.0,0.0,83,0.00,,,0.00,weatherlink.com 1.10,2013-12-24 00:33:00,
2013-12-23 18:48:00,-4.9,-9.0,30.48,West,265,0.0,0.0,83,0.00,,,0.00,weatherlink.com 1.10,2013-12-24 00:48:00,
2013-12-23 19:03:00,-4.9,-9.0,30.48,WSW,242,0.0,0.0,83,0.00,,,0.00,weatherlink.com 1.10,2013-12-24 01:03:00,
2013-12-23 19:18:00,-5.2,-9.0,30.49,West,275,0.0,0.0,83,0.00,,,0.00,weatherlink.com 1.10,2013-12-24 01:18:00,
2013-12-23 19:33:00,-5.5,-9.0,30.49,West,281,0.0,0.0,83,0.00,,,0.00,weatherlink.com 1.10,2013-12-24 01:33:00,
2013-12-23 19:48:00,-5.4,-9.0,30.49,West,274,0.0,0.0,84,0.00,,,0.00,weatherlink.com 1.10,2013-12-24 01:48:00,
2013-12-23 20:03:00,-5.5,-9.0,30.49,West,272,0.0,0.0,83,0.00,,,0.00,weatherlink.com 1.10,2013-12-24 02:03:00,
2013-12-23 20:18:00,-6.1,-10.0,30.49,West,259,0.0,0.0,83,0.00,,,0.00,weatherlink.com 1.10,2013-12-24 02:18:00,
2013-12-23 20:33:00,-6.3,-10.0,30.49,West,267,0.0,0.0,84,0.00,,,0.00,weatherlink.com 1.10,2013-12-24 02:33:00,
2013-12-23 20:48:00,-6.6,-10.0,30.49,West,262,0.0,0.0,84,0.00,,,0.00,weatherlink.com 1.10,2013-12-24 02:48:00,
2013-12-23 21:03:00,-6.5,-10.0,30.49,WNW,284,0.0,0.0,85,0.00,,,0.00,weatherlink.com 1.10,2013-12-24 03:03:00,
2013-12-23 21:18:00,-6.8,-10.0,30.49,West,275,0.0,0.0,84,0.00,,,0.00,weatherlink.com 1.10,2013-12-24 03:18:00,
2013-12-23 21:33:00,-6.9,-10.0,30.49,West,267,0.0,0.0,85,0.00,,,0.00,weatherlink.com 1.10,2013-12-24 03:33:00,
2013-12-23 21:48:00,-7.6,-11.0,30.49,West,261,0.0,0.0,85,0.00,,,0.00,weatherlink.com 1.10,2013-12-24 03:48:00,
2013-12-23 22:04:00,-7.7,-11.0,30.49,WSW,257,0.0,0.0,85,0.00,,,0.00,weatherlink.com 1.10,2013-12-24 04:04:00,
2013-12-23 22:19:00,-7.8,-11.0,30.49,West,267,0.0,0.0,85,0.00,,,0.00,weatherlink.com 1.10,2013-12-24 04:19:00,
2013-12-23 22:34:00,-7.9,-11.0,30.49,West,267,0.0,0.0,85,0.00,,,0.00,weatherlink.com 1.10,2013-12-24 04:34:00,
2013-12-23 22:49:00,-8.1,-11.0,30.49,West,279,0.0,0.0,85,0.00,,,0.00,weatherlink.com 1.10,2013-12-24 04:49:00,
2013-12-23 23:04:00,-7.6,-11.0,30.49,West,281,0.0,0.0,85,0.00,,,0.00,weatherlink.com 1.10,2013-12-24 05:04:00,
2013-12-23 23:19:00,-7.8,-11.0,30.50,West,281,0.0,0.0,84,0.00,,,0.00,weatherlink.com 1.10,2013-12-24 05:19:00,
2013-12-23 23:34:00,-7.9,-12.0,30.49,WNW,283,0.0,0.0,84,0.00,,,0.00,weatherlink.com 1.10,2013-12-24 05:34:00,
2013-12-23 23:49:00,-7.9,-12.0,30.50,West,276,0.0,0.0,84,0.00,,,0.00,weatherlink.com 1.10,2013-12-24 05:49:00,